Wind_Speed
51 51 50 49 48 46 45 44 43 42 41 40 39 39 38 38 37 36 36 35 34 34 33 33 32 31 31 30 29 28 27 27 26 26 26 25 25 24 24 23 22 22 22 22 22 22 22 22 22 22 23 23 23 23 23 22 21 21 20 19 18 17 16 15 15 14 14 14 14 14 15 17 17 17 17 17 17 17 17 17 17 16 16 15 14 14 14 15
53 52 52 51 50 48 47 46 45 44 43 42 41 41 40 39 39 38 37 36 36 35 35 34 33 32 32 31 30 29 29 28 28 27 27 26 25 25 24 24 23 23 23 23 23 23 23 23 23 23 24 24 24 24 24 23 22 22 20 20 19 18 17 16 15 15 14 14 14 15 16 17 18 17 18 18 18 18 18 18 18 18 17 17 15 15 15 15
55 54 53 52 51 50 49 48 47 46 45 44 43 42 41 41 40 40 39 38 38 37 36 35 35 34 33 32 31 31 30 29 29 28 28 27 26 26 25 25 25 24 25 25 25 25 25 25 25 25 25 25 24 25 24 24 23 22 21 20 20 19 18 17 16 16 15 15 15 16 17 17 18 18 18 19 19 19 19 19 18 19 19 18 17 16 16 16
57 56 55 54 53 52 51 50 49 48 47 46 45 44 43 42 42 41 41 40 40 39 38 37 36 36 35 34 33 32 31 31 30 30 29 28 27 27 26 26 26 26 26 26 26 26 26 26 26 26 26 26 26 25 25 24 24 23 22 21 21 19 19 18 17 17 16 17 17 17 18 18 18 18 19 19 20 20 20 20 19 19 20 19 18 18 18 18
59 58 57 56 55 54 53 52 51 49 48 47 46 45 45 44 44 43 43 42 42 41 40 39 38 37 37 36 35 34 33 33 32 31 30 30 29 28 28 27 27 27 27 27 28 28 28 27 27 27 27 26 26 26 25 25 24 23 23 22 21 21 20 19 18 18 18 18 18 18 19 19 18 18 19 20 21 21 20 20 20 20 20 20 20 20 19 19
61 60 59 58 57 56 55 54 53 51 50 49 48 47 46 46 45 45 44 44 43 43 42 41 40 39 39 38 37 36 35 35 34 32 32 31 31 30 29 29 29 28 29 29 29 29 29 28 28 28 28 27 27 26 26 25 24 24 23 23 22 21 21 20 19 19 19 19 20 20 20 19 19 19 20 22 21 21 21 21 21 21 21 21 21 21 21 21
62 62 61 60 59 57 56 56 55 53 52 51 50 49 48 47 47 46 46 45 45 44 44 43 42 41 40 39 39 38 37 37 35 34 34 33 32 32 31 31 30 30 30 30 30 30 30 29 29 29 28 28 27 27 26 25 24 24 24 23 22 22 21 21 20 20 20 20 21 21 20 20 20 21 22 23 22 22 22 21 21 21 21 21 21 22 22 23
63 63 62 62 61 60 59 57 57 55 54 53 52 51 50 49 48 48 47 47 46 46 45 44 43 43 42 41 40 39 38 39 37 36 35 35 34 34 33 32 32 32 31 31 31 31 30 30 30 29 29 28 28 27 26 25 25 24 24 23 22 22 22 22 21 21 21 21 21 21 21 21 22 23 24 24 23 23 23 22 21 21 21 21 22 22 23 24
64 64 64 63 62 62 61 60 59 58 56 55 54 53 52 51 50 49 49 48 48 47 46 46 45 44 43 42 42 40 40 40 38 38 37 37 36 35 35 34 34 34 33 33 32 32 32 31 31 30 30 29 28 28 26 26 25 24 24 23 22 23 22 23 23 23 23 23 22 21 21 23 24 25 26 25 24 25 25 24 23 22 22 22 23 23 24 25
65 65 65 64 64 63 63 62 61 60 59 58 57 56 54 53 52 51 50 50 49 49 48 48 47 46 45 43 43 42 43 41 40 40 39 39 39 38 37 37 36 36 35 35 34 34 33 33 32 31 31 30 29 29 27 27 26 25 24 23 23 23 23 24 24 24 24 23 22 20 22 24 25 27 29 27 26 27 27 26 25 24 24 24 24 25 26 27
66 66 65 65 65 64 64 63 63 62 61 60 59 58 57 56 54 53 52 52 51 51 50 49 48 47 46 45 44 44 44 42 42 43 42 41 41 40 40 39 38 38 38 37 36 35 35 34 34 33 33 32 31 31 29 28 28 26 25 24 23 23 24 25 25 25 25 23 21 20 23 25 25 27 29 27 27 28 28 28 28 27 26 26 27 28 28 29
68 67 67 66 66 65 65 64 64 63 62 62 61 60 59 58 57 56 55 54 53 53 52 51 50 49 47 46 46 46 46 44 44 45 44 43 42 42 42 41 41 40 40 39 38 37 36 36 35 35 35 34 33 33 31 30 29 28 26 25 24 24 25 27 27 25 23 22 21 20 23 25 25 26 27 26 27 28 28 29 28 28 27 27 28 29 29 30
71 70 69 68 67 66 66 65 64 64 63 63 62 61 60 59 59 57 57 56 55 54 54 53 52 51 49 48 48 48 47 45 46 46 46 45 44 44 44 44 43 43 42 42 41 39 38 38 37 36 37 36 36 35 34 33 31 29 28 27 26 25 27 29 28 24 22 23 22 20 22 24 25 26 25 24 27 28 27 28 27 27 27 27 28 29 29 29
73 72 71 70 69 68 67 67 66 65 64 64 63 62 61 60 59 59 58 57 57 56 55 55 54 53 51 50 51 50 48 48 47 47 47 46 45 45 45 45 45 45 44 44 43 41 40 40 39 38 39 38 37 38 36 35 34 31 29 28 28 28 29 31 29 25 24 24 22 20 21 22 25 27 24 23 25 27 27 26 26 25 26 27 27 28 28 28
74 73 73 72 71 69 68 68 67 66 65 64 64 63 62 61 60 59 59 58 58 57 57 57 55 55 53 52 53 52 50 50 49 49 47 47 47 47 47 47 46 46 46 45 45 44 42 42 41 40 41 40 39 40 38 36 36 33 30 30 31 31 30 30 30 28 26 25 23 21 21 22 24 27 25 23 24 25 25 25 25 25 25 27 27 27 27 27
74 74 74 73 72 71 70 69 68 67 66 66 65 64 63 63 62 61 60 59 59 58 58 58 57 56 55 54 55 55 53 52 51 49 48 48 49 49 49 48 47 48 47 47 47 45 44 43 42 42 42 42 42 42 39 37 38 35 33 34 35 34 31 30 31 31 28 26 23 21 22 23 24 26 27 25 25 25 25 25 25 26 26 27 28 28 28 28
71 74 74 74 73 72 71 70 69 68 67 67 66 65 65 64 63 62 61 61 60 59 59 58 58 57 55 56 57 57 55 53 51 50 50 50 50 51 50 49 49 49 48 48 47 46 46 44 43 43 43 45 45 43 39 39 40 37 36 39 39 35 33 32 32 33 32 27 24 23 24 24 23 26 28 27 27 26 25 26 27 27 28 29 29 30 29 30
69 71 73 74 74 74 73 71 70 69 67 67 66 66 65 65 64 63 62 62 61 60 60 59 59 58 56 57 58 58 57 54 52 52 52 51 52 51 51 51 50 50 49 49 48 48 47 44 44 44 44 48 48 43 39 41 41 38 39 41 41 38 36 35 33 34 34 30 25 25 27 27 25 26 29 29 28 27 27 28 29 29 30 31 31 31 31 31
67 68 70 72 74 75 74 73 72 70 68 67 66 65 65 65 64 64 63 62 61 61 61 61 60 59 57 57 58 58 58 56 54 54 53 53 52 51 52 52 51 51 50 50 50 49 48 46 45 45 47 50 48 43 42 43 41 40 42 42 42 42 40 38 35 34 36 32 29 28 29 29 28 27 29 30 30 29 29 30 31 31 32 33 33 33 33 33
66 66 68 69 71 73 74 74 73 72 70 69 67 66 66 65 65 64 64 63 62 63 63 61 60 59 55 56 57 58 59 58 56 55 54 53 52 52 53 52 52 52 51 52 51 50 50 48 45 49 52 50 46 45 45 43 41 43 45 43 42 43 44 42 37 35 37 34 32 33 31 31 32 29 29 33 34 31 30 32 33 33 33 35 35 35 35 35
68 67 66 67 68 70 72 73 73 73 72 71 69 67 67 66 66 65 64 64 64 65 63 60 60 58 55 56 57 58 58 58 56 55 55 54 53 53 53 53 53 53 54 54 51 51 53 48 47 52 54 50 46 47 47 44 43 44 45 44 44 44 46 45 40 38 39 36 35 36 33 33 36 34 32 35 38 35 33 34 34 35 36 37 37 37 38 38
71 70 68 68 68 69 69 70 70 71 72 71 70 70 70 70 69 68 67 67 66 65 63 61 59 57 56 56 56 58 58 57 57 56 55 54 54 53 54 55 54 55 56 54 52 53 53 49 49 54 53 51 50 49 48 47 45 46 46 46 46 46 47 46 42 40 41 39 38 37 34 35 38 39 36 37 41 40 38 38 37 38 39 39 39 39 40 40
75 73 72 70 70 70 70 69 67 67 68 68 69 71 73 73 72 71 70 69 67 65 64 61 59 58 58 56 56 58 58 57 57 57 56 55 55 56 55 56 57 57 56 54 55 55 52 50 51 53 54 54 53 50 48 48 48 47 48 47 47 49 48 47 44 42 43 42 40 38 36 37 40 42 40 41 44 44 42 42 41 42 42 42 41 41 42 42
78 77 75 73 73 73 72 71 68 66 65 66 67 68 71 73 74 74 73 71 68 65 64 62 59 58 57 57 58 60 59 58 57 56 57 57 58 59 57 57 59 59 56 56 58 56 52 51 50 53 57 56 53 51 50 50 49 50 49 48 49 50 50 48 46 43 43 44 43 40 37 37 42 43 42 45 47 46 45 45 44 45 44 44 43 43 43 44
82 81 80 78 76 75 74 73 69 68 68 68 68 69 71 72 72 74 75 73 69 65 63 62 59 58 58 59 60 61 60 59 58 56 58 61 61 60 59 60 60 60 59 58 58 56 53 51 50 53 58 58 54 52 51 52 51 51 51 50 51 52 51 50 47 44 44 45 45 43 39 38 42 44 44 48 50 47 46 47 47 46 46 45 44 44 45 46
86 85 84 83 81 79 77 73 70 71 70 70 72 74 75 74 74 75 75 76 70 63 62 61 60 59 58 58 59 63 62 58 58 58 59 63 63 62 62 61 61 61 61 61 58 55 54 53 54 55 57 58 56 53 52 53 53 52 51 51 52 53 53 51 49 46 45 46 45 43 43 40 41 45 47 49 51 49 47 48 48 47 46 46 46 47 47 47
90 89 88 87 86 84 80 76 75 76 72 71 74 77 78 77 79 78 78 79 71 61 61 61 61 60 58 58 60 64 62 57 59 61 61 64 66 65 64 62 62 61 63 63 57 54 55 57 56 55 56 58 57 55 54 54 54 52 51 52 53 54 54 53 51 49 46 45 43 42 45 44 41 45 50 49 50 52 51 50 49 48 48 48 49 49 49 49
91 92 91 90 89 87 84 81 80 78 76 76 78 79 79 79 81 80 82 82 69 58 60 61 60 60 59 60 62 64 62 59 62 63 63 67 67 66 65 64 63 62 64 63 56 55 57 57 57 57 57 57 56 57 56 55 54 53 52 52 52 53 54 54 53 51 48 44 41 43 49 49 43 43 49 50 50 53 53 52 50 50 49 50 51 51 50 50
92 92 93 93 92 89 87 85 82 80 80 80 82 82 81 81 82 82 86 83 66 56 58 59 60 60 60 62 63 64 63 62 64 64 66 69 68 67 66 65 65 63 63 62 58 57 57 56 59 59 57 56 57 58 57 56 54 52 52 52 52 52 53 54 53 51 49 44 41 46 53 53 45 41 45 49 53 55 53 52 51 50 51 51 52 52 52 52
89 90 92 94 94 92 90 87 83 82 84 85 86 86 86 86 84 86 88 79 64 58 59 60 60 60 61 63 63 64 65 65 66 66 68 69 68 68 66 66 67 63 62 62 60 59 57 57 59 58 57 57 57 57 57 56 53 52 52 52 52 52 52 53 51 51 49 43 44 51 55 54 46 39 43 48 54 56 54 53 52 51 52 53 53 53 53 53
91 90 91 91 92 93 93 90 86 85 87 89 90 91 92 91 90 92 87 73 65 64 64 64 62 59 61 63 63 64 65 65 66 67 69 69 69 70 68 67 68 66 64 62 62 61 59 57 57 57 58 57 56 56 55 54 53 53 53 53 53 53 52 52 51 50 49 45 47 52 54 53 45 40 45 48 52 56 55 54 54 53 53 53 54 54 53 54
95 94 92 90 90 92 93 92 90 90 91 92 93 95 95 96 97 94 83 71 69 69 68 67 65 63 65 66 65 65 65 65 66 67 69 70 71 71 70 69 69 69 66 64 64 64 61 59 57 57 57 57 57 56 54 54 54 54 53 53 54 54 53 52 51 51 51 49 49 51 52 51 45 43 48 50 51 55 56 56 54 54 54 54 55 55 55 55
96 97 96 93 92 91 91 92 93 94 96 96 97 97 98 100 100 90 79 74 74 73 71 69 69 69 70 69 68 67 67 68 68 69 70 71 72 71 70 70 70 70 69 67 66 65 63 60 59 57 56 57 58 57 56 56 56 55 54 54 54 55 54 53 52 53 53 51 51 51 51 49 45 46 51 52 52 53 56 57 56 55 55 55 56 57 56 56
96 98 99 98 96 94 91 91 92 94 98 100 101 102 103 104 98 87 80 78 79 78 75 73 74 75 74 72 71 70 70 70 69 70 71 71 71 70 69 70 70 71 72 70 68 66 65 62 60 60 59 59 59 59 59 58 56 55 55 56 54 54 56 55 55 55 54 52 51 50 49 47 47 48 51 53 53 53 55 57 57 56 56 56 57 58 58 57
100 99 99 99 99 96 93 92 91 93 98 102 105 107 107 104 94 86 83 81 81 82 79 79 80 79 78 77 75 74 74 72 71 72 72 71 70 69 69 69 69 70 71 71 69 68 68 65 62 62 62 62 62 62 62 60 57 56 57 56 54 55 59 59 56 55 55 53 49 47 47 48 49 49 49 52 54 55 57 58 58 58 58 59 59 59 59 58
104 103 101 99 97 96 95 94 92 94 98 102 107 109 106 98 90 87 87 86 86 86 83 83 85 84 82 81 79 78 78 76 75 75 74 72 70 69 68 67 68 70 70 70 71 70 69 66 63 63 63 64 65 65 65 62 58 58 58 58 57 59 62 61 58 56 57 54 47 46 47 49 50 49 49 52 56 59 61 60 60 60 60 61 61 61 60 59
108 107 106 101 95 94 96 96 95 96 99 103 108 107 99 92 90 91 92 91 91 90 87 86 88 87 86 84 82 81 81 80 79 79 77 76 73 70 69 68 69 70 70 71 73 72 70 67 64 63 64 65 67 68 66 64 60 59 60 60 62 63 62 62 61 58 59 56 50 48 48 49 51 51 51 55 58 60 62 61 61 62 62 62 62 62 61 61
109 109 110 105 98 95 95 96 96 97 99 104 107 104 96 90 90 92 93 94 95 95 92 89 88 88 88 87 84 84 84 84 81 81 81 80 76 73 72 72 72 72 73 75 77 75 73 71 67 64 64 66 68 68 66 65 63 63 63 64 65 66 64 65 64 61 61 59 54 51 51 52 53 54 55 57 60 62 62 62 63 64 63 63 62 62 62 62
106 108 109 107 103 100 98 97 97 99 101 104 105 101 94 89 88 90 92 94 95 95 93 91 89 89 90 88 86 85 86 85 83 83 84 82 79 76 76 76 75 75 77 78 78 77 77 76 70 65 65 68 69 68 67 67 68 68 68 67 67 67 67 68 68 66 65 63 59 57 56 55 55 57 57 58 61 64 65 64 64 64 64 64 64 64 64 65
105 106 104 103 105 104 101 100 100 102 104 105 103 97 92 90 89 90 91 92 93 94 92 90 90 91 91 89 88 86 86 87 85 85 85 84 81 79 78 79 79 78 79 80 80 80 81 79 75 70 69 70 69 69 70 71 72 71 70 69 69 70 71 71 70 69 69 68 66 63 60 58 58 58 58 59 62 66 68 67 66 66 66 66 66 66 66 66
108 107 102 100 102 102 103 104 105 106 107 106 103 97 94 93 91 90 90 91 93 92 90 89 90 91 90 89 89 87 85 86 86 85 85 84 83 81 81 82 82 83 82 82 81 83 83 82 80 76 72 70 70 70 72 73 73 73 73 72 72 73 74 75 72 72 73 73 71 68 63 59 59 60 59 61 64 66 68 68 69 70 69 69 69 69 68 68
110 107 102 100 101 101 102 106 107 108 108 107 103 99 97 96 94 92 91 91 91 90 88 88 89 90 89 88 87 86 84 84 84 83 82 81 80 81 81 82 84 85 84 84 83 83 85 85 84 79 75 72 72 72 73 74 74 75 74 73 75 75 76 77 76 76 76 74 71 72 66 59 60 61 61 62 65 66 68 70 72 73 72 72 71 71 71 70
110 107 103 102 102 101 103 106 108 110 109 107 104 101 100 99 96 95 94 93 91 90 88 88 89 90 90 88 88 87 84 83 82 80 78 76 76 76 77 79 80 82 83 84 84 84 86 87 86 83 79 75 73 73 73 74 75 75 74 75 78 78 78 80 80 78 77 73 72 74 68 60 62 64 64 65 66 67 69 71 73 73 73 73 72 72 72 72
110 107 104 103 103 103 105 107 109 110 109 106 105 104 102 100 98 97 96 94 92 91 90 88 89 90 91 91 90 89 87 85 83 81 78 77 76 75 75 76 76 77 78 79 81 84 86 88 88 87 84 78 74 73 73 74 76 77 77 79 80 80 81 81 81 82 78 72 73 74 67 63 65 66 67 68 68 69 70 71 72 72 72 72 73 73 74 74
109 107 106 105 105 105 106 107 108 109 108 107 107 106 104 102 100 98 97 97 96 95 93 89 88 91 93 95 94 92 90 87 85 83 81 79 78 77 77 78 77 76 76 76 78 81 84 87 88 88 86 80 77 76 76 78 81 81 80 80 80 81 83 82 83 84 78 74 76 74 68 67 69 68 68 69 70 70 70 71 71 72 73 73 74 75 75 76
110 109 108 107 107 107 106 107 108 109 108 108 108 108 106 104 101 100 100 100 98 97 95 92 90 92 95 96 95 93 90 87 86 86 84 82 81 79 80 80 79 79 79 78 79 81 83 86 87 86 84 82 80 81 81 82 84 83 82 82 81 82 83 84 83 80 77 79 78 73 71 72 71 70 72 71 71 71 71 71 72 73 75 75 75 76 76 77
113 112 110 109 108 108 107 106 107 107 107 107 108 108 107 105 103 104 104 102 100 98 98 96 95 95 95 95 94 93 91 91 91 90 87 85 83 82 82 82 82 82 81 81 81 83 84 86 85 84 83 82 82 84 84 83 84 85 85 84 83 83 84 84 81 77 80 82 77 72 76 77 74 75 76 74 74 73 72 72 73 74 76 76 75 76 77 77
114 113 112 112 112 111 109 106 106 105 105 105 107 107 107 106 105 106 105 102 102 102 101 101 98 95 93 93 94 95 95 95 95 93 90 88 86 85 86 86 85 85 84 84 84 85 87 87 86 86 85 83 84 85 85 84 85 86 86 86 85 85 84 83 81 79 82 82 75 74 79 78 77 80 80 78 78 76 75 75 75 76 76 76 76 76 76 77
114 113 113 113 114 114 112 109 108 106 105 105 106 107 106 106 105 105 104 103 104 104 104 102 99 95 95 96 97 98 97 97 96 94 93 92 92 91 91 91 90 89 89 88 88 89 91 89 89 90 88 86 86 87 86 86 86 85 86 86 86 85 84 83 82 81 84 82 77 79 81 79 79 82 81 81 81 80 79 79 78 79 78 78 78 77 77 78
113 112 113 113 114 114 114 113 111 109 108 107 108 107 106 105 104 104 105 105 105 103 103 102 99 98 99 100 101 101 99 97 96 95 96 97 96 94 93 93 93 93 93 92 92 93 94 92 92 92 91 89 88 89 89 89 87 86 87 86 84 83 84 84 83 83 86 84 80 83 84 80 81 83 82 83 83 82 83 83 82 82 81 80 80 79 79 79
114 113 114 114 113 113 114 114 113 112 111 110 109 108 107 106 104 104 106 106 105 103 103 101 98 99 101 103 103 102 99 98 98 98 98 98 97 95 95 95 95 94 95 95 95 95 95 94 94 94 94 92 89 91 92 91 91 91 87 82 81 83 84 84 84 85 87 85 84 86 84 80 82 85 84 84 84 84 84 83 83 83 82 81 81 79 79 80
116 114 115 115 114 113 114 114 115 114 113 112 111 110 109 108 107 107 108 108 106 104 102 100 98 99 101 102 100 98 97 97 98 97 97 97 96 95 95 95 95 95 95 95 95 94 94 95 95 95 96 94 92 92 93 93 95 94 86 80 82 86 86 85 84 84 86 87 87 87 84 83 85 85 84 84 84 84 83 83 82 80 79 80 80 81 82 85
Wind_Direction
224 224 225 225 226 226 227 228 229 230 231 232 232 233 233 234 234 235 235 236 236 237 238 239 240 241 242 244 245 246 246 247 248 250 251 252 253 254 256 258 259 261 263 264 266 267 268 269 270 270 270 271 272 273 273 275 276 277 278 278 278 278 276 274 273 271 269 267 264 262 262 262 263 262 260 258 257 255 253 254 254 254 256 258 261 263 267 272
225 225 225 226 226 227 228 228 229 230 230 231 232 233 234 235 235 236 237 237 238 238 239 240 241 243 244 245 246 247 248 249 250 252 253 253 255 256 257 259 260 261 263 265 266 267 268 269 269 270 271 272 272 273 274 276 277 278 280 280 279 279 278 276 274 272 269 266 263 261 260 261 263 263 262 260 257 256 254 253 252 252 253 255 256 257 257 260
226 226 226 227 227 228 228 229 230 230 231 231 232 233 234 235 236 237 238 238 239 239 240 241 243 244 246 247 248 249 250 251 253 254 255 256 257 258 259 260 261 262 263 265 265 266 267 268 269 270 271 272 273 275 276 278 280 281 281 281 280 280 278 277 274 272 269 265 262 260 259 259 262 264 263 261 259 257 255 253 252 252 253 254 254 252 251 252
227 227 227 228 228 229 229 230 230 231 231 232 233 233 234 235 236 238 239 239 240 240 241 242 243 245 246 248 249 250 252 253 254 255 256 257 258 259 260 261 262 263 264 265 265 266 267 267 269 270 271 272 274 275 277 279 280 281 282 281 280 279 278 276 275 272 269 266 263 261 259 259 260 263 265 263 261 259 257 254 252 253 254 255 256 253 249 248
228 228 228 228 229 230 230 231 231 232 232 233 233 234 235 235 237 238 239 240 241 241 242 243 244 245 246 248 249 250 251 253 255 256 257 258 259 260 261 262 263 264 265 266 266 267 267 268 269 270 271 273 274 276 277 279 280 281 281 281 280 278 277 275 273 271 268 266 264 262 261 260 259 261 263 264 263 261 260 258 255 253 255 256 257 256 253 250
229 229 229 229 229 230 231 232 232 233 233 234 234 235 235 236 237 238 240 241 242 242 243 244 244 246 247 248 249 250 251 253 254 256 257 259 259 260 261 262 263 264 265 266 267 268 269 270 271 272 273 274 275 276 277 278 279 279 280 280 279 278 276 273 271 269 266 265 263 262 262 262 260 259 261 262 263 264 262 261 260 257 256 256 256 256 255 254
232 231 231 230 230 231 232 233 233 234 234 235 236 236 236 237 238 239 240 242 243 244 244 245 246 246 247 248 249 250 251 252 254 255 257 258 259 260 261 262 263 264 265 266 267 268 270 271 271 272 273 274 275 275 276 277 277 278 279 279 278 277 274 271 269 266 264 263 261 261 262 262 261 259 259 260 262 264 265 264 264 263 260 258 257 255 255 254
233 233 233 232 232 231 232 233 234 235 235 236 237 237 238 239 239 240 241 242 244 245 246 247 247 248 249 250 250 251 252 253 254 255 256 258 259 260 261 262 263 264 265 266 267 268 269 270 271 272 273 274 274 275 275 275 276 276 277 277 277 275 274 271 267 264 262 260 260 260 261 262 261 260 258 259 261 262 264 266 267 268 267 265 262 260 258 257
233 233 234 234 234 233 233 233 234 235 235 236 237 238 239 240 241 242 243 244 245 246 247 248 249 249 250 251 252 253 254 254 255 256 256 257 258 259 261 262 263 264 264 265 266 267 268 269 270 271 273 273 274 274 274 274 274 275 276 276 276 275 274 271 268 265 262 260 260 260 260 260 260 261 260 259 261 262 262 264 265 266 268 269 268 267 265 263
233 233 234 234 235 235 235 235 235 235 236 236 237 238 239 240 241 242 244 245 246 247 248 248 250 250 251 252 254 255 255 256 257 257 257 258 259 260 261 262 263 264 264 264 265 266 267 268 269 271 272 273 274 274 273 274 273 274 275 276 276 275 274 271 269 267 265 263 263 263 260 258 258 261 262 261 262 263 263 263 262 263 264 265 267 268 268 267
234 234 234 234 235 235 236 236 236 237 237 237 238 238 239 240 241 242 243 245 247 248 249 249 250 251 252 253 254 255 256 256 258 258 258 258 259 260 261 262 262 263 264 264 264 265 266 268 269 270 272 273 274 274 274 273 273 272 273 274 275 276 275 273 269 267 268 269 268 264 261 259 259 260 262 264 263 263 264 263 263 262 262 262 263 264 266 267
234 234 234 235 235 235 236 236 237 237 238 238 239 239 240 240 241 242 243 245 246 248 250 251 251 251 252 253 254 255 256 256 257 258 259 259 259 260 261 262 262 263 263 264 264 264 265 267 268 270 271 273 273 274 274 272 271 271 272 273 274 275 275 273 270 269 272 272 268 264 263 264 262 259 261 263 264 264 264 265 264 264 264 263 263 263 264 266
234 234 235 235 235 236 236 236 237 237 238 239 239 240 240 241 241 242 243 245 246 248 250 251 252 252 252 253 254 254 255 256 257 258 259 259 260 260 261 262 262 263 264 264 264 264 265 266 267 268 270 271 273 273 273 272 271 270 271 272 272 274 274 272 270 272 275 271 267 264 264 266 265 261 259 261 264 264 264 265 266 266 266 265 265 266 267 268
233 234 235 235 235 236 236 236 237 237 238 239 240 241 241 242 242 243 243 244 246 247 249 251 252 253 253 254 254 254 255 255 256 257 258 260 260 260 261 262 263 263 264 264 265 265 264 265 266 268 269 270 271 272 272 272 271 270 271 272 272 270 269 272 273 273 272 271 269 266 264 265 267 265 260 259 263 265 266 266 268 268 267 266 266 268 269 270
233 233 234 235 236 236 237 237 237 237 238 239 240 240 241 242 243 243 244 244 245 246 248 250 251 253 254 254 255 255 254 255 255 256 258 259 260 260 261 261 262 263 264 265 265 265 265 265 266 266 268 269 269 270 271 272 272 270 271 272 270 267 266 271 275 272 269 270 270 268 266 264 266 268 264 259 260 263 266 269 269 269 268 268 268 268 269 270
233 234 234 235 236 237 237 237 238 238 238 239 239 240 241 242 243 243 244 245 245 246 247 248 250 251 253 254 255 256 255 254 255 256 257 258 259 260 260 261 262 262 264 264 265 266 265 265 266 266 267 268 267 268 269 271 272 272 273 271 268 267 267 269 272 272 270 269 269 269 267 264 265 269 267 263 262 263 266 268 269 269 269 269 270 270 270 271
233 234 235 235 236 236 237 237 238 238 238 239 239 240 241 241 242 243 243 244 245 246 247 247 248 250 251 253 255 256 255 255 256 257 257 258 258 259 260 261 262 263 264 265 266 266 266 266 266 266 267 268 266 266 268 270 271 273 274 271 268 267 268 267 269 272 269 266 268 269 268 264 263 268 268 265 265 266 268 268 267 268 269 270 270 271 272 273
233 234 235 235 236 236 237 237 237 238 238 239 239 240 241 242 242 243 243 244 244 245 246 247 247 248 248 250 253 255 256 256 256 256 257 257 258 259 261 262 262 263 264 265 266 266 266 267 267 268 268 267 266 266 268 268 269 271 271 271 271 269 267 266 267 270 270 266 264 266 268 266 261 264 268 267 267 267 267 268 268 268 269 270 271 271 272 273
232 234 235 236 236 236 237 237 237 238 239 239 240 240 241 242 242 243 244 244 245 245 245 245 246 247 247 249 251 254 256 256 255 255 256 257 258 260 261 262 262 263 264 265 265 266 266 266 267 268 267 265 267 268 267 267 269 271 269 269 272 272 269 266 264 268 269 267 264 262 264 266 263 263 268 270 267 266 266 267 268 268 270 271 271 272 273 273
230 232 234 235 237 237 237 237 237 238 238 239 240 240 241 242 243 243 244 244 244 245 245 245 246 247 247 249 251 252 254 255 256 256 256 257 258 259 260 261 262 263 264 263 264 265 265 265 267 267 265 265 268 269 267 267 268 269 269 269 270 272 272 269 266 267 267 266 266 263 262 265 265 262 265 270 269 265 266 268 268 269 270 270 271 273 273 273
227 229 231 233 235 237 237 237 237 238 239 239 240 241 241 242 242 242 243 243 243 244 245 245 246 248 248 248 250 252 253 255 256 256 257 257 258 258 260 260 261 262 262 262 263 264 264 264 265 266 266 267 268 268 268 268 267 268 269 270 270 271 271 271 270 269 268 267 265 264 264 267 268 262 260 267 271 267 265 266 268 269 270 270 271 272 272 273
226 227 228 230 232 234 236 236 237 238 239 239 240 241 242 242 242 241 242 242 243 244 245 245 245 247 247 247 249 251 253 254 256 257 256 257 258 258 259 259 259 260 260 261 262 262 263 264 264 265 267 268 267 266 268 269 268 268 269 270 271 271 271 271 272 271 271 269 267 266 266 268 270 267 263 265 269 268 266 265 266 267 268 269 270 271 271 271
227 227 228 228 229 231 233 234 235 237 239 240 241 242 242 242 242 242 241 242 242 243 244 244 244 245 247 247 249 250 251 253 254 256 257 257 257 257 257 258 258 258 259 261 260 260 262 263 264 267 268 267 267 267 267 268 268 268 268 269 270 270 271 272 272 272 273 272 270 270 270 271 271 271 270 270 269 268 267 266 266 267 267 268 268 269 270 270
228 228 228 228 229 229 230 231 232 234 236 238 239 241 242 242 242 242 241 241 241 242 244 244 243 244 246 247 248 249 250 251 252 255 257 257 256 256 256 256 257 258 258 259 259 260 261 262 265 267 267 266 267 268 267 267 268 268 268 269 269 270 271 272 271 272 273 274 273 272 272 274 276 274 273 273 271 270 270 269 269 268 268 269 269 269 269 269
228 229 229 228 228 228 229 229 230 232 234 235 237 238 239 239 240 241 241 240 239 241 243 244 244 243 244 246 248 249 249 250 252 253 256 256 256 256 256 255 257 258 258 257 259 261 262 263 263 264 266 267 267 268 268 268 266 266 268 269 269 270 270 270 271 271 272 273 274 275 274 274 277 277 275 274 273 272 272 273 272 271 271 272 272 271 271 270
228 229 229 229 228 228 228 228 228 230 231 234 236 237 238 238 239 239 240 239 236 237 242 244 244 243 243 245 247 249 248 248 251 252 253 256 256 256 255 255 256 257 258 258 258 261 263 263 261 261 265 268 269 268 268 267 267 266 267 269 270 270 270 271 272 272 272 273 274 277 277 274 274 276 274 274 275 275 274 274 275 275 275 275 275 273 272 272
229 230 230 231 230 230 229 228 228 229 230 232 235 236 237 238 239 239 240 239 235 235 240 243 245 245 244 245 247 249 248 248 251 251 251 254 255 255 255 255 256 257 258 258 259 261 261 261 261 262 264 266 268 269 268 268 268 268 268 269 269 271 272 273 272 271 271 272 275 278 277 272 270 272 273 273 276 277 276 275 276 277 277 277 276 275 275 275
230 230 231 232 232 232 231 230 230 231 230 232 235 236 236 238 239 239 240 239 235 234 240 243 246 247 246 246 247 249 249 248 250 251 251 253 253 254 255 256 256 257 258 260 260 260 260 262 263 262 263 265 267 268 268 268 269 270 270 270 270 270 271 272 272 272 271 271 275 276 273 269 265 268 273 276 277 276 276 276 277 277 277 277 276 276 277 277
231 232 232 232 233 233 233 232 232 233 233 233 235 236 237 237 238 238 240 239 235 233 239 243 246 248 249 248 248 249 249 248 248 250 252 253 254 255 256 256 257 257 259 261 260 259 260 261 262 262 263 265 266 267 269 269 270 271 270 270 269 268 269 270 271 272 272 272 272 269 268 268 267 270 275 277 276 275 276 277 277 277 277 277 277 277 278 279
232 233 233 233 233 234 234 234 234 235 236 236 236 237 237 237 237 238 239 238 236 233 236 240 244 246 248 249 248 248 249 248 248 248 251 253 255 255 256 257 257 257 258 260 260 260 259 259 261 264 265 265 266 268 269 271 271 270 269 268 268 267 268 269 270 270 271 271 268 266 268 270 274 277 276 274 274 276 277 277 277 278 277 278 278 279 279 279
231 233 234 234 234 234 235 234 234 235 237 238 238 238 238 238 237 238 238 237 236 234 232 235 239 242 246 248 249 249 249 249 249 249 250 252 254 256 256 257 258 257 257 258 260 261 260 260 262 264 265 266 267 268 269 270 269 268 267 267 267 267 267 268 268 269 269 268 266 268 271 275 279 280 275 272 274 276 277 278 279 279 279 279 280 280 280 280
231 231 232 234 234 235 235 235 235 235 237 238 239 239 240 240 239 239 239 238 237 236 233 234 237 241 244 247 249 251 251 250 250 250 251 251 252 254 255 256 258 258 258 259 260 261 261 261 262 263 266 268 268 267 267 267 266 266 266 267 268 268 268 268 269 269 268 267 267 269 272 276 281 279 274 272 273 276 279 280 280 280 280 281 281 280 280 281
232 232 232 232 233 235 235 236 236 236 237 238 239 240 241 241 241 241 240 240 240 238 237 237 237 239 242 245 247 250 252 251 251 250 250 250 251 252 254 256 258 260 261 260 260 262 263 263 264 264 265 266 266 267 266 266 266 267 268 268 268 270 270 269 268 267 268 269 270 271 273 277 279 277 276 276 276 278 280 280 280 280 280 280 281 281 281 283
233 234 233 233 233 234 235 236 238 239 240 240 240 241 241 242 242 242 241 241 242 241 239 239 238 238 240 243 245 248 250 251 252 251 251 251 251 252 254 256 258 260 261 261 262 264 264 264 264 265 265 265 266 267 267 267 268 269 269 269 270 272 272 269 267 268 270 270 271 274 277 278 276 275 278 280 281 280 279 279 280 281 281 281 281 282 283 284
233 234 235 235 234 234 235 235 237 239 242 242 242 241 241 242 243 243 243 243 243 242 240 239 239 238 239 241 242 244 247 250 251 252 253 252 253 253 254 256 258 260 261 263 263 263 263 263 263 265 267 267 267 267 267 268 269 270 270 271 273 272 271 270 270 271 271 270 273 277 278 278 277 278 281 282 282 280 279 280 281 282 283 282 282 283 284 285
232 234 235 236 236 235 235 235 235 237 241 243 244 243 242 243 244 244 244 242 242 242 240 239 239 239 238 239 240 243 245 247 249 252 253 254 254 255 255 257 259 260 261 263 263 261 261 262 263 265 267 268 268 267 267 267 268 270 271 273 272 270 270 272 272 272 272 273 274 275 276 277 279 281 281 279 279 280 281 283 284 284 284 284 284 285 286 286
233 234 234 235 235 236 236 235 235 236 238 242 244 244 243 243 244 244 243 242 242 242 241 240 240 240 240 239 239 242 244 246 249 251 253 255 256 257 257 258 259 260 261 262 262 261 261 261 261 263 266 267 266 266 267 268 269 270 271 271 270 270 271 272 272 272 273 275 274 274 275 276 278 280 278 277 279 281 283 284 284 284 284 284 285 286 285 285
233 234 235 235 234 235 236 236 236 237 238 240 243 244 243 242 242 244 243 243 243 243 242 242 243 243 242 241 240 241 243 245 247 250 252 254 255 257 258 258 259 260 261 261 262 263 262 261 259 260 262 264 264 265 268 269 270 269 268 268 269 271 272 272 273 273 273 274 273 273 274 274 275 277 277 279 282 283 284 285 285 284 284 283 283 283 283 282
234 234 235 236 235 234 236 237 237 238 239 240 242 243 243 242 242 243 244 244 244 244 244 244 244 244 245 245 243 242 243 244 245 247 250 252 253 255 257 258 259 260 261 262 263 264 263 262 261 259 258 259 261 264 267 268 268 267 267 269 270 272 272 272 273 273 274 274 274 272 272 272 273 275 277 281 283 284 285 284 283 282 282 282 281 281 281 281
235 234 233 235 236 234 235 237 238 238 239 241 241 242 242 242 241 242 243 244 244 244 244 244 244 245 246 246 246 244 244 245 245 246 248 250 252 253 255 257 258 259 260 261 263 263 264 264 264 261 258 258 259 262 264 266 267 268 269 270 271 271 272 272 273 275 275 275 273 272 272 273 275 277 280 281 281 282 283 283 282 281 281 281 281 281 281 280
235 235 233 235 236 236 235 236 238 239 239 240 241 241 242 242 241 241 242 244 244 244 244 243 244 245 246 246 246 246 245 246 246 246 247 249 251 252 254 255 256 257 258 260 262 264 265 265 265 263 262 260 260 261 263 265 267 269 269 270 270 271 273 273 273 273 273 273 274 275 275 277 279 280 280 279 278 279 281 281 281 281 281 282 281 281 281 280
235 236 234 235 236 237 236 237 238 239 240 240 241 241 241 242 242 241 242 243 244 244 244 243 244 245 246 246 247 246 245 245 247 247 248 249 250 252 253 254 255 256 257 259 260 262 264 265 265 265 264 262 260 260 262 264 266 267 269 271 271 271 272 272 271 270 271 273 276 277 278 280 281 280 279 276 275 275 277 278 279 281 282 282 282 281 281 280
235 235 235 235 236 236 237 238 238 238 239 240 241 241 241 241 242 242 242 242 243 244 243 242 242 244 245 246 246 246 245 244 245 246 247 248 249 251 253 254 256 257 258 259 260 261 262 264 265 265 264 263 261 261 262 264 266 268 269 269 269 269 269 270 270 271 272 274 275 276 279 282 281 279 277 275 274 273 273 275 277 279 280 281 281 280 280 281
235 235 235 235 235 235 236 237 238 239 240 240 241 241 241 241 242 243 243 243 244 244 244 242 242 243 244 245 246 246 245 244 244 245 246 247 248 249 251 253 255 257 259 261 261 262 262 263 264 264 264 264 264 264 264 265 265 265 265 265 267 268 269 270 272 272 272 274 275 276 279 281 278 277 276 275 274 273 273 273 274 276 278 278 278 278 279 280
234 235 235 235 235 235 236 237 238 239 240 240 241 241 241 241 242 243 244 244 244 244 244 243 243 243 243 244 245 246 246 246 246 246 246 248 249 250 251 253 254 256 258 260 262 262 263 263 263 264 265 265 265 264 263 263 263 263 264 266 267 269 270 270 270 271 274 275 274 275 277 278 277 276 275 275 275 274 274 274 274 274 274 274 275 276 277 278
233 233 234 235 236 236 236 237 238 239 240 240 241 241 242 242 243 243 244 244 245 245 245 244 244 243 243 244 246 247 248 249 250 250 249 249 250 251 252 253 254 255 257 259 260 261 262 263 263 264 265 265 265 263 262 262 263 264 265 266 266 268 269 269 270 273 275 274 272 275 276 275 275 275 275 274 275 275 274 274 273 273 272 272 273 275 276 278
232 233 234 235 236 237 237 238 239 240 241 242 242 242 242 243 243 243 244 244 245 246 246 246 245 245 245 246 248 249 250 251 251 251 251 252 252 253 253 254 255 255 256 258 259 260 261 262 263 264 264 264 263 263 262 262 263 264 265 265 266 267 268 270 272 274 274 273 274 276 274 274 274 274 274 274 275 275 274 273 272 272 272 273 274 276 277 278
232 233 234 235 236 237 237 238 239 240 242 243 243 244 244 243 243 244 244 245 245 246 246 246 247 247 248 249 249 249 250 251 252 252 253 254 255 255 256 256 256 256 257 258 259 261 261 262 263 263 263 263 263 263 263 263 262 263 264 265 266 267 269 270 272 273 273 274 276 275 273 274 274 274 274 275 275 275 274 272 272 272 273 274 276 277 278 278
231 233 233 235 236 237 238 238 239 239 240 242 243 244 245 245 245 245 246 245 245 246 246 247 248 249 249 250 250 250 250 251 253 254 255 255 255 255 255 256 257 258 258 258 259 260 261 262 263 263 263 263 263 263 263 263 262 262 263 264 265 267 269 271 272 273 274 274 275 274 273 273 274 275 276 276 276 275 274 273 273 274 275 276 277 278 278 278
230 232 233 234 235 237 238 238 239 240 240 241 242 243 244 245 245 246 247 246 246 247 248 248 248 248 248 249 250 250 251 252 253 254 255 255 255 255 256 257 257 258 259 259 259 260 262 263 263 263 263 263 263 264 264 264 264 263 262 263 265 268 269 270 271 272 273 274 275 274 274 275 275 275 275 275 275 276 276 276 275 275 276 277 278 279 279 279
228 230 232 233 234 236 237 238 238 239 240 240 241 242 244 245 245 246 247 248 247 247 248 248 249 249 249 249 250 251 252 253 254 254 254 255 256 257 257 257 257 258 259 260 260 261 262 262 263 263 263 263 263 264 264 264 264 263 263 265 268 269 269 270 271 272 272 274 274 273 275 276 275 274 274 275 276 276 277 277 277 278 279 279 279 279 278 278
227 228 230 232 232 234 236 237 238 238 239 240 241 241 242 242 243 244 245 247 248 248 248 249 249 250 250 251 251 252 253 254 254 254 255 255 256 256 256 257 257 258 259 259 260 261 261 261 262 262 263 263 263 263 264 264 264 264 266 268 269 269 269 270 271 271 272 272 272 273 274 275 274 275 276 276 276 276 276 277 278 278 278 278 277 277 277 277
Height
10755 10757 10759 10761 10763 10765 10767 10769 10771 10772 10774 10776 10777 10779 10780 10782 10783 10784 10786 10787 10788 10790 10791 10792 10793 10794 10796 10797 10798 10799 10800 10801 10802 10803 10804 10804 10805 10805 10805 10805 10806 10806 10806 10806 10806 10807 10807 10807 10807 10808 10808 10808 10808 10808 10808 10808 10809 10809 10810 10810 10811 10811 10812 10812 10812 10812 10812 10811 10811 10810 10809 10808 10808 10808 10808 10808 10809 10809 10810 10810 10810 10810 10810 10811 10810 10810 10809 10808
10751 10753 10755 10757 10759 10761 10763 10765 10767 10769 10770 10772 10773 10775 10777 10778 10779 10781 10782 10784 10785 10786 10787 10789 10790 10791 10792 10794 10795 10796 10797 10798 10799 10800 10801 10801 10802 10802 10803 10803 10803 10803 10803 10804 10804 10804 10805 10805 10805 10806 10806 10806 10806 10806 10806 10806 10807 10807 10808 10808 10808 10809 10810 10810 10810 10810 10810 10810 10809 10809 10808 10807 10806 10806 10806 10806 10807 10807 10808 10808 10809 10809 10809 10809 10809 10809 10808 10808
10747 10749 10751 10753 10755 10757 10759 10761 10763 10765 10767 10768 10770 10771 10773 10774 10776 10777 10779 10780 10781 10783 10784 10785 10787 10788 10789 10790 10792 10793 10794 10795 10796 10797 10798 10799 10799 10800 10800 10800 10800 10801 10801 10801 10802 10802 10803 10803 10803 10804 10804 10804 10804 10804 10804 10804 10804 10805 10805 10806 10806 10807 10807 10808 10808 10808 10808 10808 10807 10807 10806 10805 10805 10804 10804 10804 10805 10805 10806 10806 10807 10807 10807 10807 10808 10808 10807 10806
10742 10744 10747 10749 10751 10753 10755 10757 10759 10761 10763 10764 10766 10768 10769 10771 10772 10774 10775 10776 10778 10779 10781 10782 10784 10785 10786 10787 10789 10790 10791 10792 10793 10794 10795 10796 10796 10797 10797 10797 10798 10798 10798 10799 10799 10800 10800 10801 10801 10802 10802 10802 10802 10802 10802 10802 10802 10803 10803 10804 10804 10805 10805 10806 10806 10806 10806 10805 10805 10805 10804 10804 10804 10803 10802 10802 10802 10803 10803 10804 10805 10805 10805 10805 10806 10806 10805 10805
10737 10740 10742 10745 10747 10749 10751 10753 10755 10757 10759 10761 10762 10764 10766 10767 10768 10770 10771 10773 10774 10776 10777 10779 10780 10782 10783 10784 10785 10787 10788 10789 10790 10791 10792 10793 10793 10794 10794 10795 10795 10795 10796 10796 10796 10797 10798 10798 10799 10799 10800 10800 10800 10800 10800 10800 10800 10800 10801 10801 10802 10802 10803 10803 10803 10803 10803 10803 10803 10802 10802 10802 10802 10802 10800 10800 10800 10800 10801 10801 10802 10803 10803 10803 10803 10803 10803 10803
10733 10735 10737 10740 10742 10745 10747 10749 10751 10753 10755 10757 10758 10760 10762 10763 10765 10766 10768 10769 10770 10772 10774 10775 10777 10778 10779 10781 10782 10784 10785 10785 10787 10788 10789 10790 10790 10791 10792 10792 10792 10793 10793 10793 10794 10794 10795 10796 10796 10797 10797 10797 10798 10798 10798 10798 10798 10798 10798 10799 10799 10800 10800 10801 10801 10801 10801 10801 10800 10800 10800 10800 10800 10800 10799 10798 10798 10798 10798 10799 10799 10800 10801 10801 10801 10801 10801 10800
10728 10730 10733 10735 10738 10740 10742 10745 10747 10749 10751 10753 10754 10756 10758 10760 10761 10763 10764 10765 10767 10768 10770 10772 10773 10775 10776 10778 10779 10780 10782 10782 10784 10785 10786 10787 10787 10788 10788 10789 10790 10790 10790 10791 10791 10792 10792 10793 10793 10794 10794 10795 10795 10795 10796 10796 10796 10796 10796 10797 10797 10797 10798 10798 10799 10799 10799 10799 10798 10798 10798 10798 10797 10797 10796 10796 10796 10796 10796 10796 10797 10797 10798 10798 10798 10798 10798 10798
10723 10725 10728 10731 10733 10735 10738 10740 10742 10744 10746 10748 10750 10752 10754 10756 10757 10759 10760 10762 10763 10764 10766 10768 10769 10771 10772 10774 10775 10777 10778 10778 10780 10782 10782 10783 10784 10785 10785 10786 10787 10787 10788 10788 10788 10789 10790 10790 10790 10791 10791 10792 10792 10792 10793 10793 10793 10794 10794 10794 10795 10795 10795 10795 10796 10796 10796 10796 10796 10796 10796 10795 10795 10794 10793 10794 10794 10794 10794 10794 10794 10794 10794 10795 10795 10795 10795 10795
10717 10720 10723 10725 10728 10730 10733 10735 10737 10740 10742 10744 10746 10748 10750 10752 10753 10755 10756 10758 10759 10761 10762 10764 10765 10767 10769 10771 10772 10774 10774 10775 10777 10778 10779 10779 10780 10781 10782 10783 10783 10784 10785 10785 10786 10786 10787 10787 10787 10788 10788 10788 10789 10789 10790 10790 10791 10791 10791 10791 10792 10792 10792 10792 10792 10793 10793 10793 10794 10794 10794 10793 10792 10791 10790 10791 10792 10791 10791 10792 10792 10792 10792 10792 10792 10792 10792 10792
10711 10714 10717 10719 10722 10725 10727 10730 10732 10734 10737 10739 10741 10744 10746 10748 10749 10751 10752 10754 10755 10757 10758 10760 10761 10763 10765 10767 10768 10770 10770 10772 10773 10773 10775 10776 10776 10778 10778 10779 10780 10781 10781 10782 10782 10783 10783 10784 10784 10785 10785 10785 10786 10786 10787 10787 10788 10788 10788 10788 10789 10789 10789 10789 10789 10789 10790 10791 10792 10793 10792 10791 10790 10789 10787 10789 10789 10788 10789 10789 10789 10790 10789 10789 10789 10788 10788 10788
10705 10708 10711 10713 10716 10719 10722 10724 10727 10729 10732 10734 10736 10739 10741 10743 10745 10747 10748 10750 10751 10753 10754 10756 10757 10759 10761 10763 10765 10765 10766 10769 10769 10769 10771 10772 10773 10774 10775 10776 10777 10777 10778 10778 10779 10780 10780 10780 10781 10782 10781 10782 10783 10783 10784 10784 10784 10785 10786 10786 10786 10786 10786 10785 10786 10786 10787 10788 10790 10791 10789 10788 10788 10787 10785 10786 10787 10786 10786 10786 10786 10787 10787 10787 10786 10786 10785 10785
10699 10702 10705 10707 10710 10713 10715 10718 10721 10724 10726 10729 10731 10733 10736 10738 10740 10742 10744 10746 10747 10749 10750 10752 10754 10756 10758 10760 10761 10761 10762 10765 10765 10764 10766 10768 10769 10770 10771 10772 10773 10774 10774 10775 10775 10776 10777 10777 10778 10778 10778 10779 10779 10779 10781 10781 10781 10782 10782 10783 10783 10783 10783 10781 10782 10783 10785 10786 10787 10788 10786 10785 10785 10784 10783 10784 10783 10783 10783 10783 10783 10784 10784 10784 10783 10783 10782 10782
10692 10696 10698 10701 10704 10707 10709 10712 10715 10718 10720 10723 10725 10728 10731 10733 10735 10737 10739 10741 10743 10745 10747 10748 10750 10752 10754 10756 10756 10756 10759 10760 10760 10760 10762 10764 10765 10766 10767 10768 10768 10770 10770 10771 10771 10772 10773 10773 10774 10775 10775 10776 10776 10776 10777 10777 10778 10779 10779 10780 10780 10780 10779 10777 10778 10781 10782 10782 10783 10784 10784 10782 10781 10780 10781 10782 10780 10780 10780 10780 10780 10781 10780 10780 10779 10779 10779 10779
10686 10689 10692 10695 10698 10701 10703 10706 10709 10712 10714 10717 10720 10722 10725 10727 10730 10732 10734 10736 10738 10740 10742 10744 10746 10748 10751 10752 10751 10753 10755 10756 10757 10757 10758 10760 10761 10762 10763 10763 10764 10765 10766 10767 10768 10769 10769 10770 10771 10771 10771 10772 10772 10772 10773 10774 10774 10776 10776 10776 10776 10777 10776 10774 10775 10778 10779 10778 10780 10781 10781 10780 10778 10777 10778 10779 10778 10777 10777 10777 10778 10777 10777 10777 10776 10776 10775 10775
10679 10683 10686 10689 10692 10695 10698 10700 10703 10706 10709 10712 10714 10716 10719 10722 10724 10727 10729 10731 10733 10735 10737 10740 10742 10744 10747 10748 10747 10748 10751 10752 10752 10753 10755 10756 10757 10757 10758 10759 10761 10761 10762 10763 10763 10764 10765 10766 10767 10767 10767 10768 10769 10768 10769 10771 10770 10771 10773 10773 10772 10772 10773 10773 10772 10774 10775 10775 10777 10778 10778 10777 10775 10773 10774 10775 10775 10774 10774 10774 10774 10774 10774 10773 10773 10772 10772 10772
10672 10676 10679 10683 10686 10688 10691 10694 10697 10700 10703 10705 10708 10711 10713 10716 10719 10721 10723 10726 10728 10730 10732 10735 10737 10739 10743 10744 10742 10742 10746 10747 10748 10750 10752 10752 10752 10753 10753 10755 10756 10757 10759 10759 10759 10760 10760 10761 10763 10763 10763 10763 10764 10764 10766 10767 10766 10767 10769 10768 10767 10768 10770 10771 10769 10769 10771 10772 10773 10774 10774 10774 10773 10770 10771 10771 10771 10771 10772 10772 10771 10771 10770 10770 10769 10769 10769 10769
10665 10668 10672 10675 10679 10682 10685 10688 10690 10693 10696 10699 10702 10705 10707 10710 10712 10715 10718 10720 10723 10725 10727 10729 10731 10735 10739 10739 10736 10737 10739 10742 10745 10747 10747 10747 10748 10748 10749 10751 10752 10753 10754 10754 10755 10755 10755 10757 10758 10759 10760 10758 10757 10760 10763 10764 10762 10764 10765 10762 10762 10765 10766 10767 10767 10766 10766 10769 10770 10771 10770 10770 10771 10768 10767 10768 10768 10769 10769 10768 10768 10768 10767 10766 10766 10766 10766 10766
10657 10661 10664 10668 10671 10674 10677 10681 10684 10687 10690 10692 10695 10699 10701 10703 10705 10708 10712 10714 10716 10719 10721 10724 10725 10729 10733 10733 10732 10732 10734 10738 10741 10742 10742 10743 10743 10744 10745 10746 10747 10748 10749 10750 10750 10750 10751 10753 10754 10755 10755 10750 10750 10757 10760 10758 10758 10761 10760 10758 10758 10760 10761 10762 10764 10763 10762 10765 10767 10767 10766 10765 10767 10766 10764 10764 10765 10765 10766 10765 10764 10764 10764 10763 10763 10763 10763 10763
10650 10653 10657 10661 10664 10667 10670 10674 10677 10680 10683 10686 10689 10692 10694 10697 10699 10702 10704 10707 10711 10713 10714 10717 10719 10722 10727 10728 10728 10728 10729 10732 10735 10736 10737 10738 10740 10741 10740 10741 10742 10743 10745 10745 10745 10746 10747 10749 10750 10750 10747 10744 10748 10753 10754 10753 10755 10756 10754 10755 10755 10754 10755 10757 10761 10761 10758 10761 10763 10763 10763 10762 10763 10763 10762 10761 10761 10762 10762 10761 10761 10761 10760 10759 10760 10760 10759 10759
10643 10646 10649 10653 10656 10660 10663 10667 10670 10674 10677 10680 10683 10686 10688 10691 10693 10695 10698 10701 10704 10703 10705 10711 10713 10717 10724 10725 10724 10724 10723 10725 10729 10731 10732 10734 10735 10736 10736 10737 10737 10738 10739 10738 10740 10742 10741 10745 10748 10743 10738 10741 10747 10747 10747 10750 10751 10750 10749 10750 10751 10750 10749 10750 10756 10758 10755 10758 10759 10757 10759 10759 10758 10760 10760 10756 10755 10758 10758 10757 10757 10757 10757 10756 10756 10756 10756 10755
10636 10638 10642 10646 10649 10652 10655 10659 10664 10667 10670 10673 10677 10680 10682 10684 10684 10687 10691 10693 10695 10696 10700 10707 10709 10713 10719 10719 10718 10719 10719 10721 10724 10725 10727 10728 10730 10731 10732 10732 10732 10732 10732 10732 10737 10737 10735 10742 10743 10734 10733 10740 10743 10741 10741 10745 10746 10745 10745 10746 10746 10746 10744 10745 10750 10753 10751 10754 10754 10753 10756 10755 10753 10755 10756 10753 10750 10753 10754 10753 10753 10753 10752 10752 10752 10752 10752 10751
10629 10632 10635 10638 10641 10644 10647 10652 10657 10660 10663 10668 10671 10672 10672 10674 10675 10680 10683 10684 10688 10691 10695 10701 10705 10709 10712 10714 10714 10714 10715 10717 10718 10719 10721 10723 10724 10726 10726 10725 10726 10726 10725 10729 10732 10730 10731 10737 10736 10730 10732 10735 10735 10737 10738 10739 10741 10741 10740 10741 10741 10741 10740 10741 10745 10747 10747 10748 10749 10750 10752 10752 10748 10748 10751 10749 10746 10747 10748 10748 10749 10748 10747 10748 10748 10748 10747 10747
10620 10625 10627 10631 10635 10636 10640 10645 10650 10654 10657 10661 10663 10662 10662 10664 10667 10671 10674 10677 10682 10685 10689 10695 10700 10703 10705 10709 10710 10708 10709 10712 10713 10713 10715 10718 10718 10718 10720 10720 10719 10719 10721 10725 10723 10724 10729 10731 10730 10728 10727 10728 10728 10732 10734 10734 10735 10735 10735 10737 10737 10735 10735 10737 10740 10742 10742 10742 10744 10746 10748 10748 10744 10743 10745 10743 10740 10741 10742 10743 10743 10743 10743 10743 10743 10743 10743 10742
10612 10615 10619 10624 10626 10629 10634 10638 10644 10649 10650 10652 10653 10652 10652 10655 10659 10662 10664 10669 10675 10680 10684 10688 10693 10698 10701 10703 10702 10701 10704 10706 10708 10710 10710 10710 10709 10710 10714 10713 10711 10714 10718 10718 10715 10720 10725 10727 10728 10724 10719 10721 10724 10727 10728 10729 10730 10730 10730 10732 10731 10730 10730 10732 10734 10737 10737 10737 10739 10740 10744 10744 10739 10738 10739 10735 10733 10736 10736 10737 10738 10737 10737 10737 10738 10738 10738 10737
10603 10606 10610 10614 10616 10622 10625 10631 10641 10642 10642 10643 10643 10642 10642 10646 10650 10652 10655 10660 10670 10677 10679 10683 10688 10692 10694 10696 10696 10695 10698 10700 10703 10706 10704 10700 10701 10703 10706 10706 10706 10708 10710 10711 10711 10716 10720 10723 10724 10719 10712 10714 10719 10722 10722 10722 10723 10724 10725 10726 10725 10724 10725 10726 10729 10732 10733 10732 10733 10734 10738 10741 10735 10732 10732 10728 10726 10730 10731 10730 10731 10731 10732 10732 10733 10732 10732 10731
10595 10599 10603 10605 10609 10612 10617 10627 10633 10631 10633 10636 10634 10632 10634 10639 10640 10643 10646 10649 10663 10675 10676 10678 10681 10685 10688 10690 10690 10686 10689 10697 10698 10699 10697 10692 10693 10695 10696 10699 10701 10703 10703 10703 10708 10713 10716 10716 10715 10713 10710 10709 10713 10716 10716 10715 10716 10719 10722 10721 10719 10718 10719 10721 10723 10726 10728 10727 10729 10730 10730 10734 10733 10727 10725 10722 10721 10723 10725 10725 10724 10725 10726 10726 10726 10726 10725 10725
10588 10592 10595 10598 10602 10606 10613 10621 10621 10621 10627 10626 10623 10623 10627 10631 10631 10637 10638 10639 10659 10675 10672 10673 10675 10679 10684 10684 10683 10678 10684 10694 10691 10689 10690 10685 10685 10686 10689 10693 10695 10696 10695 10696 10705 10711 10709 10707 10707 10709 10707 10706 10707 10709 10709 10709 10710 10714 10717 10715 10715 10713 10713 10715 10717 10720 10723 10723 10726 10727 10721 10724 10729 10723 10717 10718 10718 10716 10716 10718 10719 10719 10720 10720 10719 10719 10719 10719
10581 10584 10588 10592 10595 10600 10607 10611 10613 10617 10620 10617 10614 10615 10620 10622 10623 10630 10627 10630 10659 10674 10669 10671 10671 10673 10677 10677 10675 10673 10680 10687 10683 10682 10682 10677 10678 10680 10683 10687 10688 10690 10688 10691 10702 10704 10701 10702 10702 10702 10701 10702 10703 10701 10702 10704 10706 10709 10710 10709 10710 10709 10708 10708 10710 10713 10716 10720 10724 10721 10712 10713 10722 10721 10714 10714 10713 10710 10709 10711 10713 10713 10713 10713 10712 10712 10713 10713
10573 10576 10581 10584 10587 10593 10598 10605 10611 10613 10612 10609 10606 10607 10612 10612 10615 10620 10614 10626 10660 10671 10666 10668 10667 10667 10669 10668 10669 10669 10674 10677 10676 10676 10672 10669 10672 10675 10678 10679 10680 10684 10684 10686 10694 10695 10696 10697 10693 10694 10697 10698 10698 10695 10696 10698 10701 10704 10703 10703 10703 10703 10703 10702 10704 10706 10708 10716 10719 10711 10702 10704 10715 10720 10715 10710 10703 10701 10704 10705 10706 10707 10706 10706 10705 10706 10707 10706
10565 10569 10572 10574 10581 10587 10592 10599 10606 10605 10603 10600 10598 10599 10599 10601 10606 10605 10604 10630 10659 10663 10662 10662 10659 10660 10660 10658 10661 10663 10664 10667 10668 10669 10665 10664 10666 10667 10671 10672 10672 10679 10680 10680 10684 10687 10690 10690 10687 10690 10692 10692 10692 10691 10691 10692 10695 10696 10696 10697 10696 10697 10698 10697 10700 10700 10702 10710 10709 10701 10697 10699 10710 10717 10711 10704 10696 10694 10698 10698 10699 10700 10700 10700 10700 10700 10700 10699
10557 10561 10562 10567 10575 10579 10583 10591 10597 10597 10592 10590 10590 10588 10587 10591 10594 10590 10604 10637 10650 10649 10654 10654 10653 10655 10652 10650 10653 10654 10656 10659 10661 10661 10660 10661 10660 10660 10665 10666 10665 10670 10674 10676 10677 10678 10681 10684 10685 10685 10684 10686 10687 10685 10686 10687 10687 10688 10689 10690 10690 10691 10693 10692 10694 10694 10696 10702 10700 10696 10694 10695 10707 10711 10703 10698 10693 10688 10691 10692 10693 10694 10693 10693 10693 10693 10693 10693
10548 10551 10554 10561 10566 10569 10576 10583 10586 10584 10579 10579 10579 10577 10579 10580 10577 10587 10616 10636 10636 10640 10648 10648 10650 10650 10645 10645 10646 10646 10649 10651 10653 10653 10652 10654 10653 10654 10657 10659 10659 10661 10667 10672 10670 10670 10675 10678 10680 10681 10681 10680 10678 10678 10680 10680 10679 10681 10684 10685 10684 10685 10686 10688 10689 10687 10689 10693 10693 10692 10691 10693 10702 10700 10692 10691 10689 10685 10685 10686 10687 10688 10687 10687 10686 10686 10686 10686
10539 10542 10546 10552 10556 10562 10569 10572 10573 10573 10571 10571 10568 10568 10570 10564 10569 10597 10622 10626 10627 10636 10640 10640 10644 10642 10638 10640 10641 10640 10640 10641 10643 10643 10643 10645 10645 10648 10652 10654 10655 10655 10659 10663 10663 10665 10670 10672 10673 10675 10676 10673 10671 10672 10673 10673 10674 10677 10678 10678 10678 10679 10680 10683 10682 10680 10682 10686 10687 10687 10688 10692 10695 10690 10682 10683 10684 10683 10680 10679 10679 10682 10682 10681 10679 10678 10679 10679
10530 10532 10536 10542 10547 10553 10558 10561 10565 10566 10562 10558 10556 10557 10555 10554 10575 10604 10615 10619 10622 10625 10629 10632 10632 10633 10632 10634 10635 10634 10631 10632 10635 10634 10634 10637 10639 10645 10649 10649 10650 10650 10650 10654 10659 10661 10662 10666 10667 10667 10668 10667 10666 10667 10666 10667 10670 10672 10671 10671 10674 10674 10671 10672 10673 10675 10678 10680 10682 10683 10684 10686 10686 10683 10678 10676 10677 10676 10674 10672 10673 10674 10675 10674 10673 10671 10672 10673
10520 10521 10526 10531 10536 10544 10549 10552 10558 10557 10550 10546 10544 10543 10542 10556 10585 10603 10607 10614 10611 10609 10619 10621 10618 10622 10624 10624 10627 10626 10623 10625 10626 10624 10626 10631 10635 10640 10643 10644 10645 10645 10644 10646 10652 10654 10653 10658 10662 10661 10661 10661 10661 10661 10660 10663 10666 10665 10664 10665 10669 10666 10660 10661 10667 10670 10671 10674 10679 10680 10680 10678 10677 10678 10677 10672 10669 10667 10666 10667 10667 10667 10667 10665 10665 10665 10665 10666
10508 10511 10515 10519 10528 10537 10539 10542 10548 10547 10541 10536 10529 10528 10543 10569 10591 10594 10595 10599 10594 10596 10606 10605 10605 10612 10614 10616 10620 10619 10617 10619 10618 10617 10620 10624 10629 10634 10638 10640 10639 10637 10639 10638 10640 10643 10645 10650 10657 10657 10655 10655 10654 10653 10653 10657 10661 10660 10659 10659 10659 10656 10652 10654 10660 10663 10662 10667 10676 10676 10674 10672 10670 10673 10672 10666 10663 10659 10659 10661 10661 10661 10659 10657 10657 10657 10658 10658
10497 10501 10502 10509 10522 10527 10527 10533 10537 10535 10532 10525 10515 10522 10548 10572 10579 10577 10580 10583 10580 10584 10589 10590 10596 10602 10603 10608 10613 10613 10611 10612 10613 10614 10615 10617 10623 10629 10631 10633 10632 10629 10632 10630 10626 10630 10637 10643 10651 10651 10650 10650 10646 10645 10647 10651 10656 10656 10653 10652 10648 10647 10649 10649 10651 10656 10655 10659 10668 10670 10669 10668 10666 10667 10665 10660 10657 10655 10654 10655 10654 10653 10651 10650 10650 10649 10649 10649
10487 10489 10489 10500 10515 10517 10517 10522 10524 10523 10521 10513 10506 10519 10544 10561 10564 10565 10569 10569 10568 10573 10577 10582 10589 10592 10593 10599 10604 10606 10604 10605 10610 10609 10608 10610 10617 10623 10623 10623 10625 10623 10622 10618 10616 10623 10628 10633 10641 10646 10646 10643 10639 10639 10643 10645 10647 10647 10645 10644 10642 10641 10644 10643 10643 10648 10649 10651 10658 10662 10662 10662 10661 10660 10658 10654 10652 10650 10649 10649 10647 10645 10643 10644 10644 10642 10642 10641
10475 10475 10481 10494 10504 10506 10508 10511 10513 10511 10506 10498 10499 10517 10538 10550 10555 10556 10556 10557 10560 10564 10570 10577 10581 10581 10584 10589 10594 10598 10597 10599 10604 10603 10601 10605 10611 10616 10616 10615 10617 10617 10612 10609 10610 10614 10616 10620 10631 10640 10639 10635 10634 10636 10638 10637 10636 10636 10637 10639 10639 10637 10638 10636 10636 10639 10641 10643 10649 10652 10653 10655 10656 10655 10654 10652 10647 10642 10641 10641 10640 10638 10636 10636 10636 10635 10634 10633
10461 10464 10476 10486 10489 10494 10501 10501 10499 10495 10491 10488 10496 10516 10531 10537 10542 10544 10545 10547 10550 10554 10561 10568 10569 10568 10575 10581 10582 10588 10590 10590 10594 10596 10596 10600 10605 10610 10611 10608 10609 10607 10603 10602 10602 10603 10605 10611 10621 10628 10629 10629 10631 10633 10631 10627 10627 10629 10632 10634 10633 10631 10629 10628 10631 10633 10632 10633 10637 10640 10645 10650 10651 10650 10650 10647 10642 10636 10632 10631 10630 10629 10629 10629 10628 10627 10626 10625
10449 10454 10471 10479 10476 10484 10490 10485 10482 10481 10480 10481 10491 10510 10520 10522 10528 10534 10536 10537 10538 10544 10553 10558 10558 10560 10566 10571 10571 10578 10583 10581 10584 10589 10590 10595 10600 10603 10604 10601 10598 10597 10596 10597 10597 10595 10596 10600 10606 10614 10621 10624 10626 10626 10623 10620 10622 10624 10624 10626 10626 10624 10621 10620 10625 10625 10621 10623 10627 10629 10638 10646 10646 10645 10645 10640 10635 10631 10626 10622 10619 10619 10620 10621 10620 10619 10618 10618
10438 10446 10464 10470 10466 10473 10476 10470 10470 10472 10470 10474 10488 10503 10507 10509 10517 10523 10527 10528 10528 10536 10544 10548 10552 10554 10556 10560 10561 10566 10571 10573 10576 10581 10585 10591 10593 10594 10595 10593 10589 10590 10591 10591 10591 10590 10587 10588 10594 10602 10611 10615 10617 10618 10616 10615 10617 10617 10619 10621 10618 10615 10613 10610 10612 10615 10613 10618 10622 10620 10628 10640 10639 10635 10635 10632 10628 10625 10620 10615 10612 10610 10611 10611 10611 10610 10609 10609
10428 10439 10453 10456 10456 10461 10460 10456 10460 10461 10461 10471 10483 10489 10492 10498 10506 10510 10515 10518 10521 10527 10533 10538 10543 10545 10547 10550 10550 10552 10558 10564 10567 10573 10578 10582 10583 10585 10586 10585 10584 10584 10585 10585 10586 10584 10579 10578 10583 10589 10597 10604 10608 10610 10611 10611 10611 10612 10613 10610 10604 10604 10604 10600 10602 10605 10607 10615 10616 10611 10620 10633 10630 10625 10623 10621 10620 10618 10614 10611 10607 10605 10604 10603 10602 10601 10600 10600
10421 10431 10439 10443 10445 10448 10445 10444 10448 10451 10456 10468 10472 10474 10482 10491 10496 10500 10505 10511 10515 10518 10521 10527 10534 10536 10538 10539 10538 10541 10547 10552 10559 10565 10569 10571 10574 10577 10578 10577 10578 10578 10578 10580 10579 10577 10573 10571 10573 10576 10583 10594 10601 10603 10605 10604 10601 10599 10599 10596 10594 10596 10595 10594 10596 10594 10600 10612 10608 10604 10615 10622 10617 10615 10613 10611 10609 10608 10607 10606 10603 10601 10598 10596 10594 10593 10592 10591
10412 10420 10425 10430 10432 10433 10433 10437 10441 10444 10450 10458 10460 10464 10473 10480 10486 10493 10496 10499 10503 10506 10509 10518 10524 10526 10527 10526 10527 10532 10537 10545 10552 10557 10560 10563 10566 10570 10569 10569 10572 10571 10571 10572 10571 10568 10566 10564 10563 10566 10573 10585 10592 10593 10594 10591 10585 10585 10589 10589 10589 10588 10586 10587 10586 10585 10597 10605 10597 10598 10609 10609 10605 10605 10604 10601 10599 10598 10598 10598 10596 10595 10592 10590 10587 10585 10585 10583
10399 10405 10411 10416 10418 10421 10425 10430 10431 10433 10439 10445 10448 10454 10462 10468 10479 10486 10484 10485 10491 10495 10500 10508 10512 10512 10513 10515 10519 10526 10533 10540 10543 10544 10550 10555 10557 10560 10560 10559 10562 10563 10562 10563 10561 10559 10558 10555 10556 10560 10566 10574 10578 10578 10579 10578 10575 10578 10581 10581 10581 10580 10578 10577 10578 10585 10591 10587 10586 10596 10599 10594 10596 10595 10592 10592 10591 10589 10589 10588 10587 10585 10582 10581 10582 10580 10579 10577
10384 10392 10402 10407 10408 10410 10416 10421 10421 10425 10432 10436 10439 10446 10453 10460 10469 10470 10469 10477 10484 10487 10490 10494 10496 10499 10505 10511 10516 10521 10527 10529 10528 10531 10539 10543 10547 10551 10551 10551 10552 10553 10554 10554 10551 10550 10548 10547 10550 10553 10556 10563 10565 10563 10566 10569 10569 10570 10569 10570 10572 10572 10569 10568 10573 10583 10577 10570 10583 10593 10583 10580 10587 10583 10579 10584 10582 10579 10581 10579 10577 10575 10572 10573 10574 10573 10571 10570
10373 10383 10394 10396 10395 10399 10406 10413 10415 10419 10425 10426 10428 10435 10441 10447 10453 10455 10462 10473 10474 10473 10476 10478 10485 10495 10503 10507 10508 10510 10514 10514 10515 10523 10530 10534 10538 10541 10540 10540 10541 10542 10544 10544 10543 10541 10538 10539 10543 10542 10545 10553 10552 10550 10555 10559 10559 10560 10560 10562 10563 10562 10562 10563 10568 10573 10564 10562 10579 10580 10567 10573 10576 10567 10569 10573 10571 10570 10570 10568 10567 10565 10564 10566 10566 10565 10563 10561
10364 10374 10383 10384 10384 10390 10398 10404 10406 10409 10414 10415 10417 10423 10428 10435 10443 10448 10455 10460 10458 10461 10465 10469 10482 10493 10494 10494 10493 10494 10500 10504 10508 10517 10520 10521 10524 10527 10527 10528 10531 10532 10533 10534 10535 10530 10527 10531 10535 10532 10535 10542 10540 10539 10544 10545 10548 10552 10553 10553 10554 10555 10557 10557 10560 10562 10554 10556 10570 10563 10554 10564 10565 10558 10561 10560 10557 10558 10557 10557 10558 10557 10557 10557 10556 10556 10554 10551
10356 10365 10371 10372 10375 10380 10387 10393 10396 10400 10404 10404 10406 10412 10417 10425 10434 10438 10441 10443 10447 10454 10457 10462 10476 10482 10478 10478 10478 10480 10490 10497 10501 10506 10506 10504 10508 10515 10517 10518 10520 10521 10520 10522 10523 10520 10519 10522 10525 10522 10524 10531 10533 10531 10531 10532 10536 10540 10541 10546 10552 10552 10550 10549 10553 10553 10543 10547 10556 10546 10542 10555 10555 10548 10549 10547 10545 10547 10545 10546 10547 10546 10547 10547 10546 10545 10542 10540
10347 10353 10357 10359 10364 10369 10373 10379 10384 10388 10392 10394 10398 10405 10409 10415 10424 10428 10427 10429 10436 10442 10445 10453 10464 10464 10461 10463 10465 10471 10483 10488 10487 10491 10492 10492 10497 10503 10504 10504 10508 10509 10508 10509 10511 10511 10512 10513 10515 10513 10512 10520 10526 10521 10518 10522 10522 10522 10531 10545 10548 10543 10540 10540 10543 10542 10536 10538 10540 10533 10536 10546 10540 10532 10536 10538 10537 10536 10534 10534 10535 10536 10537 10536 10534 10533 10531 10530
10335 10341 10343 10346 10352 10357 10360 10364 10369 10373 10379 10384 10390 10395 10399 10405 10412 10412 10411 10415 10423 10431 10436 10444 10450 10449 10447 10452 10459 10468 10474 10472 10472 10477 10480 10482 10486 10490 10490 10492 10495 10496 10497 10498 10499 10501 10502 10502 10505 10504 10501 10509 10515 10510 10510 10511 10504 10509 10531 10544 10537 10529 10528 10531 10533 10532 10527 10526 10525 10526 10531 10532 10524 10522 10526 10526 10525 10524 10523 10524 10525 10527 10527 10524 10522 10522 10520 10518